Dequincy, LA

5:26 PM CDT on August 28, 2016 (GMT -0500)
De Quincy Industrial Air Park

Weather History for K5R8 - February, 2014

Change the Weather History Date:

Monday, February 17, 2014

  Actual Average (KLCH) Record (KLCH)
Temperature  
Mean Temperature 68 °F 55 °F  
Max Temperature 76 °F 65 °F 80 °F (1911)
Min Temperature 60 °F 46 °F 20 °F (1903)
Degree Days  
Heating Degree Days 0 10  
Month to date heating degree days 194  
Since 1 July heating degree days 1185  
Cooling Degree Days 3 0  
Month to date cooling degree days 0  
Year to date cooling degree days 10  
Growing Degree Days 18 (Base 50)    
Moisture  
Dew Point 62 °F    
Average Humidity 84    
Maximum Humidity 97    
Minimum Humidity 63    
Precipitation  
Precipitation 0.00 in 0.12 in 3.31 in (1961)
Month to date precipitation 2.18  
Year to date precipitation 7.41  
Snow  
Snow 0.00 in 0.00 in T in (1973)
Month to date snowfall 0.1  
Since 1 July snowfall 0.1  
Snow Depth -    
Sea Level Pressure  
Sea Level Pressure 30.06 in    
Wind  
Wind Speed 7 mph (South)    
Max Wind Speed 14 mph    
Max Gust Speed 20 mph    
Visibility 10 miles    
Events      
T = Trace of Precipitation, MM = Missing Value Source: NWS Daily Summary

Daily Weather History Graph

Daily Weather History Graph

Search for Another Location

Airport or City:

Trip Planner

Search our weather history database for the weather conditions in past years. The results will help you decide how hot, cold, wet, or windy it might be!

Date:

Astronomy

Feb. 17, 2014 Rise Set
Actual Time 6:52 AM CST 6:03 PM CST
Civil Twilight 6:27 AM CST 6:28 PM CST
Nautical Twilight 5:59 AM CST 6:56 PM CST
Astronomical Twilight 5:31 AM CST 7:24 PM CST
Moon 8:43 PM CST (2/17) 8:06 AM CST (2/17)
Length of Visible Light 12h 00m
Length of Day
11h 11m
Waning Gibbous, 93% of the Moon is Illuminated
Feb 17
Waning Gibbous
Feb 22
Last Quarter
Mar 1
New
Mar 8
First Quarter
Mar 16
Full

Hourly Weather History & Observations

Time (CST) Temp. Dew Point Humidity Pressure Visibility Wind Dir Wind Speed Gust Speed Precip Events Conditions
12:15 AM 60.4 °F 59.0 °F 95% 30.05 in 10.0 mi South 6.9 mph - N/A   Overcast
12:35 AM 60.6 °F 59.0 °F 94% 30.04 in 10.0 mi South 8.1 mph - N/A   Overcast
12:55 AM 60.8 °F 59.0 °F 94% 30.04 in 10.0 mi South 8.1 mph - N/A   Mostly Cloudy
1:15 AM 60.6 °F 58.6 °F 93% 30.03 in 10.0 mi South 8.1 mph - N/A   Scattered Clouds
1:35 AM 61.0 °F 58.5 °F 91% 30.03 in 10.0 mi South 10.4 mph 16.1 mph N/A   Mostly Cloudy
1:55 AM 61.0 °F 58.1 °F 90% 30.03 in 10.0 mi South 6.9 mph - N/A   Overcast
2:15 AM 61.5 °F 57.7 °F 87% 30.03 in 10.0 mi South 5.8 mph - N/A   Overcast
2:35 AM 61.7 °F 57.4 °F 86% 30.03 in 10.0 mi South 5.8 mph - N/A   Overcast
2:55 AM 61.7 °F 57.4 °F 86% 30.02 in 10.0 mi South 5.8 mph - N/A   Overcast
3:15 AM 61.7 °F 57.2 °F 85% 30.01 in 10.0 mi South 8.1 mph - N/A   Overcast
3:35 AM 61.7 °F 57.2 °F 85% 30.01 in 10.0 mi South 6.9 mph - N/A   Overcast
3:55 AM 61.7 °F 57.2 °F 85% 30.01 in 10.0 mi South 8.1 mph - N/A   Overcast
4:15 AM 61.9 °F 57.2 °F 85% 30.01 in 10.0 mi South 4.6 mph - N/A   Overcast
4:35 AM 61.9 °F 57.2 °F 85% 30.01 in 10.0 mi South 4.6 mph - N/A   Overcast
4:55 AM 61.9 °F 57.6 °F 86% 30.02 in 10.0 mi South 4.6 mph - N/A   Overcast
5:15 AM 61.9 °F 57.7 °F 86% 30.02 in 10.0 mi SSE 5.8 mph - N/A   Overcast
5:35 AM 61.9 °F 57.9 °F 87% 30.02 in 10.0 mi Calm Calm - N/A   Overcast
5:55 AM 61.9 °F 58.1 °F 87% 30.02 in 10.0 mi Calm Calm - N/A   Overcast
6:15 AM 62.1 °F 58.3 °F 87% 30.02 in 10.0 mi Calm Calm - N/A   Overcast
6:35 AM 62.1 °F 58.6 °F 89% 30.03 in 10.0 mi SE 3.5 mph - N/A   Overcast
6:50 AM 61.9 °F 58.6 °F 89% 30.04 in 10.0 mi SSE 3.5 mph - N/A   Overcast
7:15 AM 62.2 °F 59.0 °F 89% 30.05 in 10.0 mi Calm Calm - N/A   Overcast
7:35 AM 62.2 °F 59.4 °F 90% 30.05 in 10.0 mi SSE 3.5 mph - N/A   Overcast
7:55 AM 62.6 °F 59.9 °F 91% 30.06 in 10.0 mi South 4.6 mph - N/A   Overcast
8:15 AM 63.1 °F 60.1 °F 90% 30.06 in 10.0 mi SSE 5.8 mph - N/A   Overcast
8:35 AM 64.4 °F 60.6 °F 88% 30.07 in 10.0 mi South 4.6 mph - N/A   Overcast
8:55 AM 64.9 °F 60.8 °F 86% 30.08 in 10.0 mi South 6.9 mph - N/A   Overcast
9:15 AM 65.8 °F 61.2 °F 85% 30.08 in 10.0 mi South 6.9 mph - N/A   Overcast
9:35 AM 67.5 °F 62.1 °F 83% 30.07 in 10.0 mi South 5.8 mph 16.1 mph N/A   Overcast
9:55 AM 68.9 °F 62.6 °F 80% 30.08 in 10.0 mi SSW 12.7 mph 17.3 mph N/A   Overcast
10:15 AM 70.3 °F 63.0 °F 77% 30.09 in 10.0 mi SSW 9.2 mph 17.3 mph N/A   Overcast
10:35 AM 69.1 °F 63.0 °F 81% 30.11 in 10.0 mi SSW 8.1 mph 17.3 mph N/A   Overcast
10:55 AM 69.6 °F 63.5 °F 81% 30.10 in 10.0 mi South 9.2 mph - N/A   Overcast
11:15 AM 71.4 °F 63.9 °F 77% 30.10 in 10.0 mi SSW 12.7 mph 19.6 mph N/A   Overcast
11:35 AM 73.2 °F 63.3 °F 71% 30.10 in 10.0 mi SW 11.5 mph 18.4 mph N/A   Overcast
11:55 AM 72.1 °F 63.3 °F 74% 30.09 in 10.0 mi SSW 10.4 mph 17.3 mph N/A   Overcast
12:15 PM 74.7 °F 63.9 °F 69% 30.09 in 10.0 mi SSW 8.1 mph - N/A   Overcast
12:35 PM 74.7 °F 62.8 °F 66% 30.08 in 10.0 mi SSW 8.1 mph 17.3 mph N/A   Mostly Cloudy
12:55 PM 76.5 °F 63.0 °F 63% 30.07 in 10.0 mi SSW 13.8 mph - N/A   Mostly Cloudy
1:15 PM 74.8 °F 62.1 °F 64% 30.06 in 10.0 mi SW 9.2 mph 19.6 mph N/A   Overcast
1:35 PM 74.5 °F 63.1 °F 68% 30.06 in 10.0 mi SW 6.9 mph - N/A   Mostly Cloudy
1:55 PM 74.7 °F 63.0 °F 67% 30.04 in 10.0 mi SW 4.6 mph - N/A   Overcast
2:15 PM 74.3 °F 63.0 °F 68% 30.04 in 10.0 mi SSW 8.1 mph - N/A   Overcast
2:35 PM 76.6 °F 63.3 °F 63% 30.04 in 10.0 mi South 8.1 mph - N/A   Overcast
2:55 PM 76.6 °F 63.7 °F 64% 30.04 in 10.0 mi South 10.4 mph - N/A   Overcast
3:15 PM 76.5 °F 63.1 °F 63% 30.03 in 10.0 mi SSW 6.9 mph - N/A   Mostly Cloudy
3:35 PM 76.3 °F 63.7 °F 65% 30.04 in 10.0 mi South 6.9 mph - N/A   Mostly Cloudy
3:55 PM 74.8 °F 63.3 °F 67% 30.04 in 10.0 mi SSW 3.5 mph - N/A   Overcast
4:15 PM 73.9 °F 64.0 °F 71% 30.04 in 10.0 mi SSW 5.8 mph - N/A   Overcast
4:35 PM 74.3 °F 64.8 °F 72% 30.05 in 10.0 mi South 4.6 mph - N/A   Overcast
4:55 PM 72.9 °F 64.8 °F 76% 30.05 in 10.0 mi South 9.2 mph - N/A   Overcast
5:15 PM 72.3 °F 64.9 °F 78% 30.06 in 10.0 mi SSW 9.2 mph - N/A   Overcast
5:35 PM 71.6 °F 64.9 °F 79% 30.06 in 10.0 mi South 8.1 mph - N/A   Overcast
5:55 PM 70.5 °F 64.9 °F 82% 30.06 in 10.0 mi South 6.9 mph - N/A   Overcast
6:15 PM 69.8 °F 65.3 °F 86% 30.07 in 10.0 mi South 6.9 mph - N/A   Overcast
6:35 PM 69.3 °F 65.3 °F 87% 30.07 in 10.0 mi SSW 4.6 mph - N/A   Overcast
6:55 PM 68.9 °F 65.3 °F 88% 30.08 in 10.0 mi Calm Calm - N/A   Overcast
7:15 PM 68.2 °F 65.5 °F 91% 30.09 in 10.0 mi South 4.6 mph - N/A   Overcast
7:35 PM 67.6 °F 65.3 °F 92% 30.09 in 10.0 mi South 5.8 mph - N/A   Overcast
7:55 PM 67.1 °F 64.9 °F 93% 30.10 in 10.0 mi South 5.8 mph - N/A   Mostly Cloudy
8:15 PM 66.9 °F 65.1 °F 94% 30.10 in 10.0 mi South 5.8 mph - N/A   Mostly Cloudy
8:35 PM 67.1 °F 65.3 °F 94% 30.11 in 10.0 mi South 5.8 mph - N/A   Overcast
8:55 PM 67.1 °F 65.3 °F 94% 30.11 in 10.0 mi South 6.9 mph - N/A   Overcast
9:15 PM 66.6 °F 64.9 °F 95% 30.12 in 7.0 mi South 4.6 mph - N/A   Overcast
9:35 PM 66.4 °F 64.9 °F 95% 30.12 in 7.0 mi SSW 4.6 mph - N/A   Overcast
9:55 PM 66.2 °F 64.8 °F 95% 30.12 in 7.0 mi SSW 6.9 mph - N/A   Overcast
10:15 PM 65.8 °F 64.6 °F 96% 30.13 in 7.0 mi SSW 5.8 mph - N/A   Overcast
10:35 PM 65.7 °F 64.6 °F 96% 30.12 in 7.0 mi South 8.1 mph - N/A   Overcast
10:55 PM 65.3 °F 64.4 °F 97% 30.12 in 10.0 mi SSW 6.9 mph - N/A   Overcast
11:15 PM 65.1 °F 64.0 °F 96% 30.12 in 10.0 mi SSW 4.6 mph - N/A   Overcast
11:35 PM 65.1 °F 63.9 °F 96% 30.12 in 7.0 mi South 3.5 mph - N/A   Overcast
11:55 PM 64.9 °F 63.9 °F 96% 30.12 in 7.0 mi South 4.6 mph - N/A   Overcast